AKDT,Max TemperatureF,Mean TemperatureF,Min TemperatureF,Max Dew PointF,MeanDew PointF,Min DewpointF,Max Humidity, Mean Humidity, Min Humidity, Max Sea Level PressureIn, Mean Sea Level PressureIn, Min Sea Level PressureIn, Max VisibilityMiles, Mean VisibilityMiles, Min VisibilityMiles, Max Wind SpeedMPH, Mean Wind SpeedMPH, Max Gust SpeedMPH,PrecipitationIn, CloudCover, Events, WindDirDegrees
2012-4-1,41,36,33,32,31,30,93,83,68,29.65,29.63,29.61,10,10,10,5,1,,0.00,7,Rain-Snow,222
2012-4-2,39,32,26,30,24,21,92,75,55,29.62,29.52,29.43,10,10,5,7,1,,0.00,2,,234
2012-4-3,37,28,19,21,17,14,85,60,42,29.77,29.62,29.49,10,10,9,6,2,,0.00,0,,339
2012-4-4,42,32,21,28,21,16,82,63,40,29.99,29.92,29.79,10,10,10,7,2,,0.00,6,,329
2012-4-5,46,40,35,29,27,25,78,63,44,30.03,29.99,29.95,10,10,10,14,6,26,0.00,8,,285
2012-4-6,44,38,33,37,32,27,97,84,53,30.25,30.14,29.98,10,6,2,17,6,26,0.09,7,Rain-Snow,277
2012-4-7,35,32,30,32,30,27,96,90,85,30.42,30.32,30.25,10,4,0,10,1,,0.31,8,Fog-Snow,225
2012-4-8,42,31,21,30,25,19,96,80,45,30.44,30.36,30.21,10,7,0,6,2,,0.00,4,Fog-Snow,337
2012-4-9,41,31,23,28,23,17,85,71,51,30.22,30.14,30.02,10,10,10,6,2,,0.00,0,,298
2012-4-10,46,34,21,29,21,16,89,64,33,30.00,29.88,29.80,10,10,6,7,1,,0.00,0,,332
2012-4-11,48,36,25,24,20,15,79,54,27,29.83,29.82,29.80,10,10,10,6,2,,0.00,2,,319
2012-4-12,46,36,25,28,24,20,84,62,40,29.88,29.86,29.84,10,10,9,5,1,,0.00,2,,312
2012-4-13,48,38,28,29,25,22,82,58,37,29.94,29.91,29.87,10,10,10,6,1,,0.00,3,,294
2012-4-14,48,39,30,32,27,24,79,60,39,29.88,29.80,29.73,10,10,10,6,2,,0.00,3,,302
2012-4-15,51,42,34,32,30,24,85,64,36,29.78,29.74,29.71,10,10,10,14,2,21,0.00,6,,226
2012-4-16,48,42,35,33,32,30,82,68,56,29.76,29.73,29.70,10,10,8,6,1,,0.00,5,,305
2012-4-17,48,42,37,34,33,32,82,68,54,29.80,29.76,29.72,10,10,10,4,1,,0.00,7,,296
2012-4-18,50,42,37,35,32,30,83,67,52,29.83,29.79,29.74,10,10,10,9,2,,0.00,5,,283
2012-4-19,55,44,33,32,30,26,85,60,34,29.75,29.72,29.65,10,10,10,7,1,,0.00,3,,302
2012-4-20,53,43,34,30,29,27,78,59,41,29.73,29.65,29.61,10,10,10,8,2,,0.00,2,,269
2012-4-21,52,43,34,33,29,27,78,58,43,30.01,29.90,29.75,10,10,10,10,2,16,0.00,5,,133
2012-4-22,52,41,30,31,27,21,85,56,32,30.03,30.01,29.98,10,10,10,10,2,18,0.00,2,,172
2012-4-23,51,40,30,30,25,22,75,54,36,29.98,29.89,29.81,10,10,10,9,2,,0.00,0,,300
2012-4-24,51,41,32,30,26,24,79,57,36,29.81,29.79,29.76,10,10,10,8,2,,0.00,1,,291
2012-4-25,57,44,30,31,26,23,76,49,28,29.81,29.75,29.64,10,10,10,10,3,,0.00,0,,327
2012-4-26,60,44,32,33,28,25,75,51,30,29.64,29.60,29.56,10,10,10,6,2,,0.00,0,,314
2012-4-27,57,46,36,30,28,25,68,47,32,29.74,29.67,29.62,10,10,7,12,4,,0.00,2,,250
2012-4-28,53,46,41,35,32,29,76,57,43,29.81,29.75,29.66,10,10,10,10,5,,0.00,6,,315
2012-4-29,57,47,39,33,30,25,73,55,31,29.66,29.58,29.53,10,10,10,10,3,,0.00,7,,285
2012-4-30,57,48,41,35,29,19,79,49,29,29.64,29.61,29.58,10,10,10,13,3,,0.00,4,,269